F6JSP-13 Weather Reports


Display with metric or nautical units.
time (UTC)temp
F
wind
direction
speed
MPH
gust
MPH
rain 1hr
in
rain 24hr
in
rain mn
in
humidity
%
barometer
mb
20260504173005 60 356 1.0 7.0 0.00 0.46 0.00 86 1009.0
20260504172505 60 358 2.0 9.0 0.00 0.46 0.00 86 1008.9
20260504171506 61 10 4.0 9.0 0.00 0.46 0.00 84 1009.0
20260504170505 62 2 5.0 10.0 0.00 0.46 0.00 80 1009.0
20260504151006 64 326 5.0 10.0 0.00 0.47 0.00 73 1008.7
20260504150506 64 297 3.0 9.0 0.00 0.47 0.00 72 1008.8
20260504141006 63 344 4.0 12.0 0.00 0.54 0.00 69 1009.4
20260504140505 63 339 4.0 10.0 0.00 0.54 0.00 68 1009.5
20260504130505 60 294 6.0 10.0 0.00 0.74 0.00 78 1009.7
20260504110505 63 319 2.0 7.0 0.00 0.74 0.00 70 1009.7
20260504082006 58 306 2.0 5.0 0.00 0.74 0.00 88 1010.0
20260504081505 57 296 3.0 6.0 0.00 0.74 0.00 88 1009.7
20260504081006 57 272 3.0 5.0 0.00 0.74 0.00 89 1009.9
20260504080505 56 276 1.0 5.0 0.00 0.75 0.00 90 1009.8
20260504050504 50 104 0.0 1.0 0.00 0.90 0.00 99 1009.2
20260504050005 50 199 0.0 2.0 0.00 0.90 0.00 99 1009.3
20260504045505 50 320 1.0 2.0 0.00 0.90 0.00 99 1009.1
20260504045005 50 313 1.0 2.0 0.00 0.90 0.00 99 1009.1
20260504044504 50 313 1.0 2.0 0.00 0.90 0.00 99 1009.1
20260504044005 50 281 0.0 2.0 0.00 0.90 0.00 99 1009.3
20260504043005 50 300 0.0 1.0 0.00 0.90 0.00 99 1009.2
20260504042505 50 335 1.0 2.0 0.00 0.90 0.00 99 1009.2
20260504042005 50 272 1.0 2.0 0.00 0.90 0.00 99 1009.3
20260504041005 51 10 0.0 1.0 0.00 0.90 0.00 99 1009.4
20260504040504 51 176 0.0 2.0 0.00 0.90 0.00 99 1009.4
20260504040005 51 133 1.0 3.0 0.00 0.90 0.00 99 1009.3
20260504035505 51 95 2.0 3.0 0.00 0.90 0.00 99 1009.4
20260504034505 51 335 1.0 2.0 0.00 0.90 0.00 99 1009.5
20260504034005 51 84 0.0 2.0 0.00 0.90 0.00 99 1009.6
20260504033505 51 3 1.0 2.0 0.00 0.90 0.00 98 1009.5
20260504033005 51 124 1.0 2.0 0.00 0.90 0.00 98 1009.5
20260504032505 51 223 0.0 2.0 0.00 0.90 0.00 98 1009.3
20260504032005 51 23 0.0 1.0 0.00 0.90 0.00 98 1009.6
20260504031005 51 148 0.0 1.0 0.00 0.90 0.00 98 1009.5
20260504030505 51 333 0.0 2.0 0.00 0.90 0.00 98 1009.5
20260504030005 51 8 1.0 2.0 0.00 0.90 0.00 98 1009.3
20260504025505 51 20 0.0 1.0 0.00 0.90 0.00 97 1009.4
20260504025005 51 326 1.0 2.0 0.00 0.90 0.00 97 1009.6
20260504023504 52 302 0.0 2.0 0.00 0.90 0.00 97 1009.4
20260504023005 52 328 1.0 3.0 0.00 0.90 0.00 97 1009.5
20260504022504 52 309 1.0 3.0 0.00 0.90 0.00 97 1009.3
20260504022005 52 328 1.0 2.0 0.00 0.90 0.00 96 1009.3
20260504021005 52 224 0.0 2.0 0.00 0.90 0.00 96 1009.4
20260504020504 53 232 1.0 2.0 0.00 0.90 0.00 96 1009.5
20260504015504 53 153 1.0 2.0 0.00 0.90 0.00 95 1009.3
20260504015005 53 219 0.0 2.0 0.00 0.90 0.00 94 1009.2
20260504014505 53 261 0.0 3.0 0.00 0.90 0.00 94 1009.4
20260504014004 53 281 0.0 2.0 0.00 0.91 0.00 93 1009.3
20260504013504 53 253 1.0 2.0 0.00 0.91 0.00 93 1009.5
20260504013005 54 262 1.0 2.0 0.00 0.91 0.00 93 1009.5
20260504012505 53 250 0.0 2.0 0.00 0.91 0.00 93 1009.6
20260504012005 54 317 1.0 3.0 0.00 0.91 0.00 93 1009.5
20260504011504 54 330 1.0 2.0 0.00 0.91 0.00 93 1009.6
20260504011004 54 272 1.0 3.0 0.00 0.91 0.00 93 1009.5
20260504010505 54 292 1.0 3.0 0.00 0.91 0.00 92 1009.6
20260504005504 54 283 1.0 3.0 0.00 0.92 0.00 92 1009.6
20260504005004 55 294 1.0 3.0 0.00 0.92 0.00 92 1009.6
20260504004004 55 144 0.0 1.0 0.00 0.92 0.00 92 1009.7
20260504003504 55 122 0.0 1.0 0.00 0.92 0.00 92 1009.7
20260504002005 55 327 1.0 2.0 0.00 0.93 0.00 91 1009.7
20260504001504 55 312 1.0 2.0 0.00 0.93 0.00 91 1010.0
20260504001004 55 286 0.0 1.0 0.00 0.93 0.00 91 1009.9
20260504000004 55 285 0.0 2.0 0.00 0.93 0.00 91 1009.7
20260503235504 55 273 0.0 2.0 0.00 0.93 0.00 91 1009.7
20260503235005 55 295 0.0 1.0 0.00 0.93 0.00 90 1009.8
20260503234504 55 232 0.0 1.0 0.00 0.93 0.00 90 1009.9
20260503233505 56 323 0.0 2.0 0.00 0.93 0.00 89 1009.6
20260503233005 56 323 1.0 2.0 0.00 0.93 0.00 89 1009.7
20260503232504 56 336 1.0 5.0 0.00 0.93 0.00 89 1009.8
20260503232005 56 305 1.0 5.0 0.00 0.93 0.00 88 1009.7
20260503231504 57 305 2.0 5.0 0.00 0.93 0.00 88 1009.9
20260503231005 57 308 2.0 6.0 0.00 0.93 0.00 88 1009.8
20260503230504 57 313 2.0 5.0 0.00 0.93 0.00 87 1009.8
20260503230004 57 315 2.0 5.0 0.46 0.93 0.46 87 1009.7
20260503225504 57 315 2.0 5.0 0.00 0.93 0.46 87 1009.7
20260503225005 57 317 1.0 5.0 0.00 0.93 0.46 87 1010.0
20260503224504 57 320 2.0 5.0 0.00 0.93 0.46 87 1009.7
20260503224004 58 302 0.0 5.0 0.00 0.93 0.46 86 1009.9
20260503223504 58 314 3.0 7.0 0.00 1.01 0.46 86 1009.8
20260503223004 58 325 2.0 3.0 0.00 1.01 0.46 86 1010.0
20260503222505 58 304 2.0 5.0 0.00 1.01 0.46 86 1010.0
20260503222004 58 298 3.0 6.0 0.00 1.01 0.46 86 1010.1
20260503221005 58 283 1.0 3.0 0.00 1.02 0.46 88 1009.9
20260503220504 58 276 0.0 2.0 0.00 1.02 0.46 88 1010.0
20260503220005 58 276 1.0 2.0 0.00 0.56 0.00 88 1009.8
20260503215504 58 330 0.0 2.0 0.00 0.56 0.46 88 1009.9
20260503215004 58 323 1.0 2.0 0.00 0.56 0.46 88 1009.9
20260503214504 58 327 1.0 2.0 0.00 0.56 0.46 88 1009.8
20260503214005 58 318 1.0 2.0 0.00 0.56 0.46 88 1009.7
20260503213504 58 310 1.0 2.0 0.00 0.56 0.46 88 1009.8
20260503213004 58 305 0.0 1.0 0.00 0.57 0.46 88 1009.8
20260503212504 58 317 0.0 0.0 0.00 0.57 0.46 87 1009.8
20260503211504 58 336 0.0 1.0 0.00 0.57 0.46 87 1009.7
20260503211004 58 317 0.0 2.0 0.00 0.57 0.46 87 1009.9
20260503210504 58 309 0.0 2.0 0.00 0.58 0.46 86 1009.6
20260503210005 58 313 1.0 2.0 0.00 0.58 0.46 86 1009.8
20260503205005 58 265 0.0 2.0 0.00 0.58 0.46 85 1009.5
20260503204504 59 2 0.0 1.0 0.00 0.58 0.46 85 1009.7
20260503204004 59 288 0.0 2.0 0.00 0.58 0.46 85 1009.5
20260503203504 59 302 1.0 3.0 0.00 0.58 0.46 86 1009.5
20260503202504 59 315 1.0 3.0 0.00 0.58 0.46 86 1009.3
20260503202004 59 326 0.0 3.0 0.00 0.58 0.46 87 1009.3
20260503201506 58 315 0.0 2.0 0.00 0.58 0.46 88 1009.2
20260503201006 59 131 0.0 1.0 0.00 0.58 0.46 88 1009.3
20260503200506 59 248 0.0 1.0 0.00 0.58 0.46 87 1009.1
20260503200005 59 248 0.0 1.0 0.00 0.58 0.46 86 1008.9
20260503195505 59 2 0.0 2.0 0.00 0.58 0.46 87 1008.8
20260503195006 60 340 0.0 1.0 0.00 0.58 0.46 87 1008.6
20260503194006 61 46 0.0 1.0 0.00 0.58 0.46 86 1008.7
20260503193505 61 50 0.0 1.0 0.00 0.58 0.46 85 1008.6
20260503193009 62 69 0.0 2.0 0.00 0.58 0.46 82 1008.7
20260503192505 62 350 0.0 0.0 0.00 0.58 0.46 78 1008.6
20260503192006 62 350 0.0 1.0 0.00 0.58 0.46 77 1008.4
20260503191506 63 311 1.0 5.0 0.00 0.58 0.46 76 1008.5
20260503191006 63 306 2.0 5.0 0.00 0.58 0.46 75 1008.4
20260503190506 65 309 0.0 1.0 0.00 0.58 0.46 73 1008.4
20260503190005 65 298 0.0 2.0 0.00 0.58 0.46 72 1008.3
20260503185006 66 314 2.0 2.0 0.00 0.58 0.46 70 1008.2
20260503184506 66 299 1.0 5.0 0.00 0.58 0.46 71 1008.4
20260503184006 65 291 2.0 5.0 0.00 0.58 0.46 71 1008.3
20260503183506 65 282 2.0 5.0 0.00 0.58 0.46 72 1008.4
20260503183006 66 279 2.0 7.0 0.00 0.58 0.46 71 1008.4
20260503182505 67 308 3.0 8.0 0.00 0.58 0.46 69 1008.3
20260503182006 67 268 5.0 8.0 0.00 0.58 0.46 69 1008.0
20260503181505 67 268 5.0 14.0 0.00 0.58 0.46 69 1008.0
20260503181006 67 181 2.0 5.0 0.00 0.58 0.46 74 1008.0
20260503180505 68 157 2.0 3.0 0.00 0.58 0.46 73 1008.0
20260503180005 67 124 0.0 2.0 0.00 0.58 0.46 74 1007.8
20260503175506 65 142 1.0 2.0 0.00 0.58 0.46 76 1008.1
20260503174506 65 169 3.0 5.0 0.00 0.58 0.46 78 1007.8
20260503174005 66 177 2.0 5.0 0.00 0.58 0.46 75 1007.7